sat.trackr.live / text

‹ back to catalog

STARLINK-5910

NORAD 56000 · 2023-042Q

PAYLOAD ACTIVE UNKNOWN

§ Identity

Operator
Country
US
Launch date
2023-03-24
Launch site
AFETR
Launch vehicle
Mass (kg)
RCS (m²)

Purposes: comms

External: N2YO · Heavens-Above · Gunter

§ Orbital elements

Epoch: 2026-05-24T22:52:14.160288Z

Period
94.27 min
Inclination
43.0053°
Eccentricity
0.0001427
Mean motion
15.27576231 rev/d
Perigee alt
482.1 km
Apogee alt
484.0 km
Semi-major
6,861.2 km
B*
2.3602e-5
RAAN
348.8428°
Arg perigee
271.8304°
Mean anomaly
88.2384°
Rev number
17,453

§ Raw data

STARLINK-59101 56000U 23042Q   26144.95294167  .00000387  00000+0  23602-4 0  99962 56000  43.0053 348.8428 0001427 271.8304  88.2384 15.27576231174536

JSON: /api/v1/satellites/56000 · /tle

For live sub-satellite position, see the globe view (requires WebGL).

§ Visibility from observer

Set your observer location to see the next 7 days of passes ≥ 10°. The values pass through the URL so the page stays shareable.

No JS? Fill the form by hand. The geolocation button needs JavaScript.